Location: Banios
(43.0451°N, 0.2335°E)
Time: 09:19:57
(UTC+00:00)

A-11 Canister half - Pass Details

Date: 16 May 2021
Orbit: 1527 x 1681 km, 47.3° (Epoch: 22 June)

Event Time Altitude Azimuth Distance (km) Brightness Sun altitude
Rises 10:04:20 0° 262° (W) 4,731 11.3 56.6°
Reaches altitude 10° 10:07:23 10° 265° (W) 3,766 10.9 57.1°
Maximum altitude 10:17:00 73° 350° (N) 1,673 10.0 58.4°
Drops below altitude 10° 10:26:57 10° 75° (ENE) 3,893 11.5 59.8°
Sets 10:30:10 0° 78° (ENE) 4,897 11.8 60.2°
